When you browse on this site, cookies collect data to enhance your experience and personalize the content and advertising you see.
Visit our Privacy Policy to learn more. By continuing to use the site, you agree to this use of cookies and data.
  • In Romania
  • List of Countries
  • For 7 days
  • Water Temperature
  • Satellite Maps
  • Weather Map
  • Weather Widgets
  • user-avatar
    Login

    Hourly Weather Vishnyakovka

    Today, 26 March, Tuesday

    Time Temperature Precipitation Wind Pressure Humidity
    00:00 -4°C° 0 mm 2 mps 746 mmHg 85%
    01:00 -4°C° 0 mm 2 mps 746 mmHg 85%
    02:00 -4°C° 0 mm 2 mps 746 mmHg 84%
    03:00 -4°C° 0 mm 3 mps 746 mmHg 82%
    04:00 -4°C° 0 mm 3 mps 746 mmHg 83%
    05:00 -3°C° 0 mm 4 mps 746 mmHg 84%
    06:00 -3°C° 0 mm 4 mps 745 mmHg 85%
    07:00 -2°C° 0.1 mm 5 mps 745 mmHg 89%
    08:00 -2°C° 0.1 mm 5 mps 744 mmHg 92%
    09:00 -1°C° 0 mm 5 mps 744 mmHg 95%
    10:00 -2°C° 1 mm 6 mps 744 mmHg 96%
    11:00 -1°C° 1 mm 6 mps 744 mmHg 98%
    12:00 -1°C° 1 mm 7 mps 743 mmHg 100%
    13:00 -1°C° 0.3 mm 6 mps 743 mmHg 100%
    14:00 -1°C° 0.3 mm 6 mps 744 mmHg 100%
    15:00 0°C° 0.3 mm 5 mps 744 mmHg 100%
    16:00 0°C° 0.1 mm 4 mps 744 mmHg 99%
    17:00 +1°C° 0.1 mm 3 mps 745 mmHg 99%
    18:00 0°C° 0.1 mm 3 mps 745 mmHg 99%
    19:00 +1°C° 0 mm 2 mps 745 mmHg 99%
    20:00 +1°C° 0 mm 2 mps 746 mmHg 98%
    21:00 +1°C° 0 mm 2 mps 746 mmHg 98%
    22:00 -1°C° 0 mm 2 mps 746 mmHg 97%
    23:00 -1°C° 0 mm 2 mps 746 mmHg 96%

    Tomorrow, 27 March, Wednesday

    Time Temperature Precipitation Wind Pressure Humidity
    00:00 -1°C° 0 mm 2 mps 746 mmHg 96%
    01:00 -1°C° 0.1 mm 2 mps 746 mmHg 96%
    02:00 +1°C° 0.1 mm 2 mps 746 mmHg 96%
    03:00 0°C° 0.1 mm 3 mps 746 mmHg 96%
    04:00 0°C° 0.1 mm 3 mps 746 mmHg 96%
    05:00 +1°C° 0.1 mm 2 mps 746 mmHg 97%
    06:00 +1°C° 0.1 mm 2 mps 746 mmHg 98%
    07:00 +1°C° 0.2 mm 2 mps 746 mmHg 98%
    08:00 +1°C° 0.2 mm 2 mps 746 mmHg 99%
    09:00 +1°C° 0.2 mm 2 mps 746 mmHg 100%
    10:00 +1°C° 0.1 mm 2 mps 746 mmHg 99%
    11:00 +1°C° 0.1 mm 2 mps 747 mmHg 99%
    12:00 +1°C° 0.1 mm 2 mps 747 mmHg 99%
    13:00 +1°C° 0 mm 2 mps 747 mmHg 99%
    14:00 +1°C° 0 mm 2 mps 747 mmHg 99%
    15:00 0°C° 0 mm 3 mps 747 mmHg 100%
    16:00 0°C° 0 mm 3 mps 748 mmHg 97%
    17:00 0°C° 0 mm 3 mps 748 mmHg 95%
    18:00 0°C° 0 mm 3 mps 748 mmHg 93%
    19:00 -1°C° 0 mm 3 mps 749 mmHg 92%
    20:00 -1°C° 0 mm 3 mps 749 mmHg 92%
    21:00 -1°C° 0 mm 3 mps 749 mmHg 91%
    22:00 -2°C° 0 mm 3 mps 750 mmHg 91%
    23:00 -4°C° 0 mm 3 mps 750 mmHg 91%

    Day after tomorrow, 28 March, Thursday

    Time Temperature Precipitation Wind Pressure Humidity
    00:00 -5°C° 0 mm 3 mps 750 mmHg 90%
    01:00 -6°C° 0 mm 3 mps 750 mmHg 91%
    02:00 -6°C° 0 mm 3 mps 750 mmHg 91%
    03:00 -7°C° 0 mm 3 mps 750 mmHg 92%
    04:00 -7°C° 0 mm 3 mps 750 mmHg 91%
    05:00 -8°C° 0 mm 4 mps 750 mmHg 90%
    06:00 -9°C° 0 mm 4 mps 750 mmHg 89%
    07:00 -8°C° 0 mm 4 mps 750 mmHg 89%
    08:00 -7°C° 0 mm 4 mps 751 mmHg 89%
    09:00 -6°C° 0 mm 5 mps 751 mmHg 89%
    10:00 -5°C° 0 mm 5 mps 751 mmHg 90%
    11:00 -3°C° 0 mm 4 mps 751 mmHg 90%
    12:00 -2°C° 0 mm 4 mps 751 mmHg 91%
    13:00 -2°C° 0 mm 4 mps 751 mmHg 91%
    14:00 -2°C° 0 mm 4 mps 752 mmHg 91%
    15:00 -2°C° 0 mm 5 mps 752 mmHg 91%
    16:00 -2°C° 0 mm 5 mps 752 mmHg 90%
    17:00 -2°C° 0 mm 5 mps 752 mmHg 89%
    18:00 -4°C° 0 mm 5 mps 752 mmHg 88%
    19:00 -5°C° 0 mm 5 mps 753 mmHg 88%
    20:00 -4°C° 0 mm 4 mps 753 mmHg 89%
    21:00 -5°C° 0 mm 4 mps 753 mmHg 89%
    22:00 -5°C° 0 mm 4 mps 753 mmHg 90%
    23:00 -7°C° 0 mm 4 mps 753 mmHg 91%

    29 March, Friday

    Time Temperature Precipitation Wind Pressure Humidity
    00:00 -7°C° 0 mm 4 mps 753 mmHg 92%
    01:00 -7°C° 0 mm 4 mps 753 mmHg 92%
    02:00 -8°C° 0 mm 4 mps 753 mmHg 93%
    03:00 -8°C° 0 mm 4 mps 753 mmHg 94%
    04:00 -7°C° 0 mm 3 mps 753 mmHg 94%
    05:00 -7°C° 0 mm 3 mps 753 mmHg 94%
    06:00 -8°C° 0 mm 3 mps 753 mmHg 93%
    07:00 -7°C° 0 mm 3 mps 754 mmHg 92%
    08:00 -6°C° 0 mm 3 mps 754 mmHg 91%
    09:00 -6°C° 0 mm 3 mps 754 mmHg 90%
    10:00 -5°C° 0 mm 3 mps 754 mmHg 91%
    11:00 -4°C° 0 mm 3 mps 753 mmHg 91%
    12:00 -2°C° 0 mm 3 mps 753 mmHg 92%
    13:00 -2°C° 0 mm 3 mps 753 mmHg 93%
    14:00 -1°C° 0 mm 3 mps 752 mmHg 95%
    15:00 -1°C° 0 mm 3 mps 752 mmHg 96%
    16:00 -1°C° 0 mm 3 mps 752 mmHg 96%
    17:00 -1°C° 0 mm 2 mps 752 mmHg 95%
    18:00 -2°C° 0 mm 2 mps 752 mmHg 94%
    19:00 -2°C° 0 mm 2 mps 752 mmHg 94%
    20:00 -2°C° 0 mm 2 mps 752 mmHg 95%
    21:00 0°C° 0 mm 1 mps 752 mmHg 95%
    22:00 -2°C° 0 mm 2 mps 752 mmHg 96%
    23:00 -2°C° 0 mm 2 mps 752 mmHg 96%

    30 March, Saturday

    Time Temperature Precipitation Wind Pressure Humidity
    00:00 -2°C° 0 mm 2 mps 752 mmHg 97%
    01:00 -2°C° 0 mm 2 mps 752 mmHg 97%
    02:00 -2°C° 0 mm 2 mps 752 mmHg 96%
    03:00 -1°C° 0 mm 3 mps 752 mmHg 96%
    04:00 -2°C° 0 mm 3 mps 752 mmHg 96%
    05:00 -2°C° 0 mm 3 mps 752 mmHg 96%
    06:00 -4°C° 0 mm 3 mps 752 mmHg 96%
    07:00 -2°C° 0 mm 3 mps 752 mmHg 97%
    08:00 -2°C° 0 mm 4 mps 752 mmHg 98%
    09:00 -1°C° 0 mm 4 mps 752 mmHg 99%
    10:00 -1°C° 0 mm 4 mps 752 mmHg 99%
    11:00 -1°C° 0 mm 4 mps 752 mmHg 99%
    12:00 0°C° 0 mm 4 mps 752 mmHg 99%
    13:00 0°C° 0 mm 4 mps 752 mmHg 99%
    14:00 0°C° 0 mm 4 mps 751 mmHg 99%
    15:00 +1°C° 0 mm 4 mps 751 mmHg 99%
    16:00 +2°C° 0 mm 3 mps 751 mmHg 99%
    17:00 +2°C° 0 mm 3 mps 751 mmHg 98%
    18:00 +2°C° 0 mm 3 mps 751 mmHg 98%
    19:00 +2°C° 0 mm 3 mps 751 mmHg 97%
    20:00 +1°C° 0 mm 3 mps 751 mmHg 96%
    21:00 +1°C° 0 mm 3 mps 751 mmHg 96%
    22:00 +1°C° 0 mm 3 mps 751 mmHg 96%
    23:00 +1°C° 0 mm 3 mps 751 mmHg 96%

    31 March, Sunday

    Time Temperature Precipitation Wind Pressure Humidity
    00:00 +2°C° 0 mm 2 mps 751 mmHg 96%
    01:00 +2°C° 0 mm 2 mps 751 mmHg 96%
    02:00 +2°C° 0 mm 2 mps 751 mmHg 96%
    03:00 +2°C° 0 mm 2 mps 751 mmHg 96%
    04:00 +1°C° 0 mm 2 mps 751 mmHg 96%
    05:00 +1°C° 0 mm 2 mps 751 mmHg 95%
    06:00 +1°C° 0 mm 2 mps 751 mmHg 95%
    07:00 +2°C° 0 mm 2 mps 751 mmHg 96%
    08:00 +1°C° 0 mm 3 mps 751 mmHg 98%
    09:00 +2°C° 0 mm 3 mps 752 mmHg 99%
    10:00 +2°C° 0 mm 3 mps 751 mmHg 99%
    11:00 +3°C° 0 mm 3 mps 751 mmHg 98%
    12:00 +4°C° 0 mm 3 mps 751 mmHg 98%
    13:00 +5°C° 0 mm 3 mps 751 mmHg 97%
    14:00 +6°C° 0 mm 2 mps 751 mmHg 96%
    15:00 +7°C° 0 mm 2 mps 751 mmHg 95%
    16:00 +7°C° 0 mm 2 mps 750 mmHg 94%
    17:00 +7°C° 0 mm 1 mps 750 mmHg 93%
    18:00 +7°C° 0 mm 1 mps 750 mmHg 92%
    19:00 +5°C° 0 mm 2 mps 751 mmHg 90%
    20:00 +5°C° 0 mm 2 mps 751 mmHg 87%
    21:00 +5°C° 0 mm 2 mps 751 mmHg 85%
    22:00 +3°C° 0 mm 3 mps 751 mmHg 85%
    23:00 +3°C° 0 mm 3 mps 751 mmHg 86%
    Show more